WXM80 ListenWXM80 Stop

You find our weather info also at:

UK Metoffice

WeatherCloud

Weather Underground

Northeastern Weather Network

AWEKAS

Citizen Weather Observer Program (CWOP)

HAMweather, WeatherForYou, PWS Weather


Weather Underground History page Text

Daily Summary for June 11, 2017 Units:  Metric    English   Both
« Previous Day
Next Day »
Daily Weekly Monthly Yearly Custom
  High: Low: Average:
Temperature: 35.2 °C 20.5 °C 27.1 °C
Dew Point: 21.5 °C 17 °C 18.8 °C
Humidity: 82 % 39 % 63 %
Wind Speed: 13.4 km/h 0 km/h 3.2 km/h
Wind Gust: 27.8 km/h - -
Wind:- - SW
Pressure: 1016.8 hPa 1013.1 hPa -
Precipitation: 0 mm    
Historical Graphs
 
 
Tabular Data for June 11, 2017
Time Temperature Dew Point Pressure Wind Wind Speed Wind Gust Humidity Rainfall Rate (Hourly)
00:04 21.9 °C 17.1 °C 1015.1 hPa SW 3.9 km/h 5.6 km/h 74 % 0 mm
00:14 21.9 °C 17.1 °C 1015.1 hPa SSW 6.3 km/h 7.4 km/h 74 % 0 mm
00:15 21.9 °C 17.1 °C 1015.1 hPa West 1.4 km/h 7.4 km/h 74 % 0 mm
00:20 21.9 °C 17.3 °C 1015.1 hPa West 2.6 km/h 5.6 km/h 75 % 0 mm
00:25 21.8 °C 17.2 °C 1015.1 hPa South 3.9 km/h 5.6 km/h 75 % 0 mm
00:30 21.8 °C 17.2 °C 1015.1 hPa SW 3.5 km/h 5.6 km/h 75 % 0 mm
00:35 21.8 °C 17.2 °C 1015.1 hPa West 1.4 km/h 5.6 km/h 75 % 0 mm
00:40 21.8 °C 17.2 °C 1015.1 hPa WSW 1.4 km/h 9.3 km/h 75 % 0 mm
00:45 21.7 °C 17.1 °C 1015.1 hPa WSW 5.3 km/h 7.4 km/h 75 % 0 mm
00:50 21.7 °C 17.3 °C 1015.1 hPa SW 1.1 km/h 7.4 km/h 76 % 0 mm
00:55 21.6 °C 17.2 °C 1015.1 hPa SW 2.3 km/h 5.6 km/h 76 % 0 mm
01:00 21.6 °C 17.2 °C 1015.1 hPa SW 1.8 km/h 6.4 km/h 76 % 0 mm
01:05 21.6 °C 17.2 °C 1015.1 hPa WSW 2.9 km/h 6.4 km/h 76 % 0 mm
01:10 21.6 °C 17.2 °C 1015.1 hPa WSW 3.4 km/h 5.6 km/h 76 % 0 mm
01:15 21.5 °C 17.1 °C 1015.1 hPa West 2.6 km/h 7.4 km/h 76 % 0 mm
01:20 21.5 °C 17.1 °C 1015.1 hPa WSW 4 km/h 5.6 km/h 76 % 0 mm
01:25 21.4 °C 17.1 °C 1015.1 hPa SW 2.1 km/h 5.6 km/h 76 % 0 mm
01:30 21.4 °C 17.1 °C 1015.5 hPa WSW 2.7 km/h 5.6 km/h 76 % 0 mm
01:36 21.4 °C 17.1 °C 1015.5 hPa SSW 2.1 km/h 6.4 km/h 76 % 0 mm
01:41 21.4 °C 17.1 °C 1015.5 hPa WSW 4.2 km/h 5.6 km/h 76 % 0 mm
01:46 21.4 °C 17 °C 1015.5 hPa SW 3.2 km/h 5.6 km/h 76 % 0 mm
01:51 21.4 °C 17 °C 1015.5 hPa SW 4.2 km/h 11.1 km/h 76 % 0 mm
01:56 21.4 °C 17 °C 1015.5 hPa SW 1.6 km/h 6.4 km/h 76 % 0 mm
02:01 21.4 °C 17 °C 1015.5 hPa WSW 1.1 km/h 7.4 km/h 76 % 0 mm
02:06 21.4 °C 17 °C 1015.5 hPa SW 8 km/h 19.3 km/h 76 % 0 mm
02:11 21.4 °C 17.1 °C 1015.5 hPa SW 8 km/h 11.3 km/h 76 % 0 mm
02:12 21.4 °C 17.1 °C 1015.5 hPa SSW 4.5 km/h 7.4 km/h 76 % 0 mm
02:18 21.4 °C 17.1 °C 1015.5 hPa SW 2.6 km/h 5.6 km/h 76 % 0 mm
02:23 21.4 °C 17.1 °C 1015.5 hPa WSW 2.7 km/h 5.6 km/h 76 % 0 mm
02:28 21.5 °C 17.1 °C 1015.5 hPa SW 6.1 km/h 13 km/h 76 % 0 mm
02:33 21.5 °C 17.1 °C 1015.5 hPa Calm   9.3 km/h 76 % 0 mm
02:38 21.5 °C 17.1 °C 1015.5 hPa SW 0.3 km/h 1.9 km/h 76 % 0 mm
02:43 21.4 °C 17.2 °C 1015.5 hPa SW 3.7 km/h 9.3 km/h 77 % 0 mm
02:48 21.4 °C 17.2 °C 1015.5 hPa SW 4.7 km/h 7.4 km/h 77 % 0 mm
02:53 21.4 °C 17.2 °C 1015.1 hPa SSW 1.6 km/h 7.4 km/h 77 % 0 mm
02:58 21.4 °C 17.2 °C 1015.1 hPa SSW 0.6 km/h 3.7 km/h 77 % 0 mm
03:03 21.4 °C 17.2 °C 1015.1 hPa WSW 3.2 km/h 5.6 km/h 77 % 0 mm
03:08 21.4 °C 17.2 °C 1015.1 hPa SSW 2.1 km/h 5.6 km/h 77 % 0 mm
03:13 21.4 °C 17.2 °C 1015.1 hPa SW 2.3 km/h 5.6 km/h 77 % 0 mm
03:18 21.3 °C 17.3 °C 1015.1 hPa WSW 1.3 km/h 5.6 km/h 78 % 0 mm
03:23 21.3 °C 17.3 °C 1015.1 hPa SW 6.3 km/h 9.3 km/h 78 % 0 mm
03:28 21.3 °C 17.3 °C 1015.1 hPa WSW 2.4 km/h 5.6 km/h 78 % 0 mm
03:33 21.3 °C 17.3 °C 1015.1 hPa WSW 2.9 km/h 5.6 km/h 78 % 0 mm
03:38 21.3 °C 17.3 °C 1015.1 hPa SSE 0.8 km/h 3.7 km/h 78 % 0 mm
03:43 21.3 °C 17.3 °C 1015.1 hPa SW 0.3 km/h 1.9 km/h 78 % 0 mm
03:48 21.3 °C 17.3 °C 1015.1 hPa SW 1.4 km/h 3.7 km/h 78 % 0 mm
03:53 21.2 °C 17.2 °C 1015.1 hPa SW 3.1 km/h 5.6 km/h 78 % 0 mm
03:58 21.2 °C 17.2 °C 1015.1 hPa SW 2.7 km/h 3.7 km/h 78 % 0 mm
04:03 21.2 °C 17.2 °C 1015.1 hPa WSW 4.2 km/h 6.4 km/h 78 % 0 mm
04:08 21.1 °C 17.3 °C 1015.1 hPa WSW 6.1 km/h 7.4 km/h 79 % 0 mm
04:13 21.1 °C 17.3 °C 1015.1 hPa SSW 3.1 km/h 6.4 km/h 79 % 0 mm
04:18 21.1 °C 17.3 °C 1015.1 hPa SW 3.9 km/h 5.6 km/h 79 % 0 mm
04:24 21 °C 17.2 °C 1015.1 hPa SW 4.5 km/h 9.3 km/h 79 % 0 mm
04:29 21 °C 17.2 °C 1015.1 hPa SSW 5.8 km/h 7.4 km/h 79 % 0 mm
04:34 21 °C 17.4 °C 1015.5 hPa WSW 6 km/h 11.1 km/h 80 % 0 mm
04:39 21 °C 17.4 °C 1015.5 hPa WSW 3.1 km/h 7.4 km/h 80 % 0 mm
04:44 20.9 °C 17.4 °C 1015.5 hPa SW 3.9 km/h 8 km/h 80 % 0 mm
04:49 20.9 °C 17.4 °C 1015.5 hPa SW 2.9 km/h 7.4 km/h 80 % 0 mm
04:54 20.9 °C 17.3 °C 1015.5 hPa WSW 3.5 km/h 5.6 km/h 80 % 0 mm
04:59 20.8 °C 17.3 °C 1015.5 hPa SW 2.7 km/h 7.4 km/h 80 % 0 mm
05:04 20.8 °C 17.3 °C 1015.5 hPa WSW 2.1 km/h 5.6 km/h 80 % 0 mm
05:09 20.8 °C 17.2 °C 1015.5 hPa South 2.7 km/h 6.4 km/h 80 % 0 mm
05:14 20.7 °C 17.3 °C 1015.8 hPa WSW 3.4 km/h 5.6 km/h 81 % 0 mm
05:19 20.7 °C 17.3 °C 1015.8 hPa SSW 2.9 km/h 5.6 km/h 81 % 0 mm
05:24 20.7 °C 17.3 °C 1015.8 hPa WSW 2.3 km/h 5.6 km/h 81 % 0 mm
05:29 20.6 °C 17.2 °C 1015.8 hPa SW 3.9 km/h 5.6 km/h 81 % 0 mm
05:34 20.6 °C 17.2 °C 1015.8 hPa SW 2.4 km/h 5.6 km/h 81 % 0 mm
05:39 20.6 °C 17.2 °C 1015.8 hPa Calm   1.9 km/h 81 % 0 mm
05:44 20.6 °C 17.2 °C 1015.8 hPa WSW 2.9 km/h 6.4 km/h 81 % 0 mm
05:49 20.6 °C 17.4 °C 1015.8 hPa SSW 5 km/h 11.1 km/h 82 % 0 mm
05:54 20.5 °C 17.3 °C 1015.8 hPa West 4.2 km/h 9.3 km/h 82 % 0 mm
05:59 20.5 °C 17.3 °C 1016.1 hPa SW 2.7 km/h 9.3 km/h 82 % 0 mm
06:04 20.6 °C 17.4 °C 1016.1 hPa SW 1.9 km/h 5.6 km/h 82 % 0 mm
06:09 20.6 °C 17.4 °C 1016.1 hPa SW 0.5 km/h 1.9 km/h 82 % 0 mm
06:14 20.6 °C 17.4 °C 1016.1 hPa WSW 2.9 km/h 5.6 km/h 82 % 0 mm
06:19 20.7 °C 17.5 °C 1016.1 hPa SW 0.3 km/h 1.9 km/h 82 % 0 mm
06:24 20.8 °C 17.4 °C 1016.5 hPa SW 1.8 km/h 5.6 km/h 81 % 0 mm
06:29 20.9 °C 17.7 °C 1016.5 hPa Calm   1.6 km/h 82 % 0 mm
06:34 21 °C 17.8 °C 1016.5 hPa WSW 2.6 km/h 3.7 km/h 82 % 0 mm
06:39 21.2 °C 17.8 °C 1016.5 hPa WSW 0.6 km/h 6.4 km/h 81 % 0 mm
06:44 21.3 °C 17.9 °C 1016.5 hPa West 0.6 km/h 3.7 km/h 81 % 0 mm
06:49 21.4 °C 18.1 °C 1016.5 hPa WSW 1.8 km/h 5.6 km/h 81 % 0 mm
06:54 21.7 °C 18.1 °C 1016.5 hPa SW 5.1 km/h 5.6 km/h 80 % 0 mm
06:59 21.9 °C 18.1 °C 1016.1 hPa WSW 2.3 km/h 3.7 km/h 79 % 0 mm
07:04 22.2 °C 18.3 °C 1016.1 hPa SSW 1.8 km/h 4.8 km/h 79 % 0 mm
07:09 22.4 °C 18.4 °C 1016.1 hPa SW 4.3 km/h 5.6 km/h 78 % 0 mm
07:14 22.7 °C 18.4 °C 1016.1 hPa WSW 1.8 km/h 5.6 km/h 77 % 0 mm
07:20 22.9 °C 18.5 °C 1016.5 hPa WNW 2.6 km/h 4.8 km/h 76 % 0 mm
07:25 23.2 °C 18.7 °C 1016.1 hPa WSW 2.4 km/h 5.6 km/h 76 % 0 mm
07:30 23.4 °C 18.8 °C 1016.1 hPa West 1.3 km/h 4.8 km/h 75 % 0 mm
07:35 23.7 °C 18.8 °C 1016.1 hPa WSW 5.6 km/h 5.6 km/h 74 % 0 mm
07:39 23.9 °C 18.8 °C 1016.1 hPa WSW 0.3 km/h 3.2 km/h 73 % 0 mm
07:44 24.1 °C 18.9 °C 1016.5 hPa SSW 1.8 km/h 3.7 km/h 73 % 0 mm
07:49 24.2 °C 19 °C 1016.5 hPa West 3.7 km/h 5.6 km/h 73 % 0 mm
07:54 24.2 °C 19.1 °C 1016.5 hPa SW 4 km/h 5.6 km/h 73 % 0 mm
07:59 24.3 °C 19.2 °C 1016.5 hPa West 2.1 km/h 5.6 km/h 73 % 0 mm
08:04 24.4 °C 19 °C 1016.5 hPa WSW 5.8 km/h 9.3 km/h 72 % 0 mm
08:09 24.5 °C 18.9 °C 1016.5 hPa WSW 3.1 km/h 5.6 km/h 71 % 0 mm
08:14 24.6 °C 19.2 °C 1016.5 hPa WSW 3.9 km/h 7.4 km/h 72 % 0 mm
08:19 24.7 °C 19.1 °C 1016.5 hPa SW 6.1 km/h 11.1 km/h 71 % 0 mm
08:24 24.8 °C 19.2 °C 1016.5 hPa WSW 4.8 km/h 8 km/h 71 % 0 mm
08:29 24.9 °C 19.3 °C 1016.8 hPa WSW 5.8 km/h 9.7 km/h 71 % 0 mm
08:34 25.1 °C 18.9 °C 1016.5 hPa WNW 4.3 km/h 13 km/h 69 % 0 mm
08:39 25.2 °C 19.1 °C 1016.5 hPa WNW 2.3 km/h 5.6 km/h 69 % 0 mm
08:44 25.4 °C 19.3 °C 1016.5 hPa West 2.9 km/h 5.6 km/h 69 % 0 mm
08:50 25.5 °C 19.2 °C 1016.5 hPa SW 5 km/h 9.3 km/h 68 % 0 mm
08:55 25.6 °C 19.3 °C 1016.5 hPa WSW 6.3 km/h 13 km/h 68 % 0 mm
09:00 25.7 °C 19.1 °C 1016.5 hPa SW 8.9 km/h 14.8 km/h 67 % 0 mm
09:05 25.9 °C 19.1 °C 1016.5 hPa WSW 3.1 km/h 9.3 km/h 66 % 0 mm
09:10 26 °C 19.4 °C 1016.5 hPa WSW 3.4 km/h 7.4 km/h 67 % 0 mm
09:15 26.2 °C 19.6 °C 1016.5 hPa WNW 4.3 km/h 7.4 km/h 67 % 0 mm
09:20 26.3 °C 19.4 °C 1016.5 hPa WSW 3.4 km/h 5.6 km/h 66 % 0 mm
09:25 26.4 °C 19.3 °C 1016.5 hPa WSW 3.9 km/h 7.4 km/h 65 % 0 mm
09:35 26.8 °C 19.4 °C 1016.5 hPa SW 3.1 km/h 11.1 km/h 64 % 0 mm
09:40 27.1 °C 19.7 °C 1016.5 hPa WNW 1.8 km/h 5.6 km/h 64 % 0 mm
09:45 27.3 °C 19.9 °C 1016.5 hPa WNW 3.7 km/h 4.8 km/h 64 % 0 mm
09:50 27.6 °C 20.1 °C 1016.5 hPa WSW 4 km/h 5.6 km/h 64 % 0 mm
09:55 27.8 °C 19.6 °C 1016.5 hPa WSW 7.9 km/h 9.7 km/h 61 % 0 mm
10:00 28.2 °C 19.4 °C 1016.5 hPa West 9.2 km/h 16.7 km/h 59 % 0 mm
10:05 28.6 °C 19.5 °C 1016.5 hPa WSW 1.8 km/h 11.1 km/h 58 % 0 mm
10:10 28.9 °C 20.1 °C 1016.5 hPa West 7.1 km/h 8 km/h 59 % 0 mm
10:15 29.3 °C 19.9 °C 1016.5 hPa WNW 9.8 km/h 12.9 km/h 57 % 0 mm
10:20 29.6 °C 20.1 °C 1016.5 hPa WSW 2.6 km/h 4.8 km/h 57 % 0 mm
10:26 29.9 °C 19.3 °C 1016.5 hPa West 10.1 km/h 14.8 km/h 53 % 0 mm
10:31 30.2 °C 19.6 °C 1016.5 hPa West 4.2 km/h 14.8 km/h 53 % 0 mm
10:36 30.4 °C 20.1 °C 1016.5 hPa NW 6.6 km/h 14.8 km/h 54 % 0 mm
10:41 30.6 °C 19.6 °C 1016.5 hPa SW 6.4 km/h 9.3 km/h 52 % 0 mm
10:46 30.8 °C 20.4 °C 1016.5 hPa WSW 1.6 km/h 14.5 km/h 54 % 0 mm
10:51 30.9 °C 19.9 °C 1016.1 hPa WSW 4.8 km/h 12.9 km/h 52 % 0 mm
10:56 31.1 °C 19.8 °C 1016.1 hPa WSW 8 km/h 16.1 km/h 51 % 0 mm
11:01 31.3 °C 20.3 °C 1016.1 hPa WSW 4 km/h 11.1 km/h 52 % 0 mm
11:06 31.5 °C 19.8 °C 1016.1 hPa West 5.6 km/h 11.1 km/h 50 % 0 mm
11:11 31.7 °C 20 °C 1016.1 hPa WSW 7.4 km/h 11.3 km/h 50 % 0 mm
11:16 31.8 °C 19.4 °C 1016.1 hPa WSW 10 km/h 16.7 km/h 48 % 0 mm
11:21 32 °C 19.6 °C 1016.1 hPa WNW 4.5 km/h 7.4 km/h 48 % 0 mm
11:26 32.2 °C 19.8 °C 1015.8 hPa WSW 6.3 km/h 12.9 km/h 48 % 0 mm
11:31 32.4 °C 20.3 °C 1015.8 hPa WSW 2.4 km/h 5.6 km/h 49 % 0 mm
11:36 32.6 °C 19.8 °C 1015.8 hPa West 5.5 km/h 14.8 km/h 47 % 0 mm
11:41 32.8 °C 19.6 °C 1015.8 hPa WSW 8 km/h 14.8 km/h 46 % 0 mm
11:46 32.8 °C 19.7 °C 1015.8 hPa WSW 9.2 km/h 14.5 km/h 46 % 0 mm
11:51 33 °C 20.2 °C 1015.8 hPa WNW 6.4 km/h 13 km/h 47 % 0 mm
11:56 33.1 °C 19.9 °C 1015.8 hPa WSW 4.8 km/h 7.4 km/h 46 % 0 mm
12:01 33.2 °C 21 °C 1015.8 hPa West 2.6 km/h 4.8 km/h 49 % 0 mm
12:06 33.2 °C 19.7 °C 1015.8 hPa NW 6.3 km/h 7.4 km/h 45 % 0 mm
12:11 33.2 °C 19.3 °C 1015.8 hPa WNW 5 km/h 13 km/h 44 % 0 mm
12:17 33.2 °C 20.1 °C 1015.8 hPa WNW 4.8 km/h 11.1 km/h 46 % 0 mm
12:22 33.2 °C 19.7 °C 1015.8 hPa WNW 1.6 km/h 7.4 km/h 45 % 0 mm
12:27 33.3 °C 20.5 °C 1015.8 hPa WSW 5.6 km/h 13 km/h 47 % 0 mm
12:32 33.3 °C 19.7 °C 1015.8 hPa SW 3.7 km/h 14.8 km/h 45 % 0 mm
12:33 33.3 °C 19.8 °C 1015.8 hPa WSW 4.3 km/h 14.8 km/h 45 % 0 mm
12:38 33.3 °C 19.7 °C 1015.8 hPa WSW 6.1 km/h 11.3 km/h 45 % 0 mm
12:43 33.3 °C 20.4 °C 1015.8 hPa WSW 3.4 km/h 5.6 km/h 47 % 0 mm
12:48 33.4 °C 20.2 °C 1015.8 hPa WSW 7.2 km/h 14.8 km/h 46 % 0 mm
12:53 33.4 °C 19.5 °C 1015.8 hPa SW 7.7 km/h 11.1 km/h 44 % 0 mm
12:58 33.5 °C 19.9 °C 1015.5 hPa SW 6.3 km/h 9.3 km/h 45 % 0 mm
13:03 33.7 °C 20.5 °C 1015.5 hPa SSW 4.2 km/h 5.6 km/h 46 % 0 mm
13:08 33.9 °C 20.3 °C 1015.5 hPa NW 7.6 km/h 11.1 km/h 45 % 0 mm
13:13 34.2 °C 19.8 °C 1015.1 hPa WSW 10 km/h 14.8 km/h 43 % 0 mm
13:18 34.2 °C 19.8 °C 1015.1 hPa WNW 4 km/h 5.6 km/h 43 % 0 mm
13:23 34.3 °C 19.6 °C 1014.8 hPa WSW 5.3 km/h 11.1 km/h 42 % 0 mm
13:24 34.4 °C 20 °C 1014.8 hPa SW 2.7 km/h 7.4 km/h 43 % 0 mm
13:29 34.6 °C 19.4 °C 1014.8 hPa SW 6.4 km/h 9.3 km/h 41 % 0 mm
13:34 34.8 °C 19.6 °C 1014.8 hPa SW 7.7 km/h 12.9 km/h 41 % 0 mm
13:39 34.9 °C 18.9 °C 1014.8 hPa SW 7.2 km/h 16.1 km/h 39 % 0 mm
13:44 35.1 °C 19.8 °C 1014.8 hPa WSW 1.3 km/h 6.4 km/h 41 % 0 mm
13:49 35.2 °C 21.1 °C 1014.8 hPa SSW 4.2 km/h 8 km/h 44 % 0 mm
13:54 35.2 °C 21.1 °C 1014.8 hPa SW 5.3 km/h 12.9 km/h 44 % 0 mm
13:59 35.2 °C 21.5 °C 1014.8 hPa SSW 0.8 km/h 3.2 km/h 45 % 0 mm
14:04 35.2 °C 21.1 °C 1014.8 hPa SW 7.6 km/h 11.1 km/h 44 % 0 mm
14:09 35.1 °C 21 °C 1014.4 hPa SSW 4.8 km/h 9.3 km/h 44 % 0 mm
14:14 34.9 °C 20.9 °C 1014.4 hPa South 3.2 km/h 8 km/h 44 % 0 mm
14:19 34.8 °C 21.1 °C 1014.4 hPa SSW 7.2 km/h 11.3 km/h 45 % 0 mm
14:25 34.7 °C 20.3 °C 1014.4 hPa SE 1.3 km/h 7.4 km/h 43 % 0 mm
14:30 34.7 °C 20.3 °C 1014.4 hPa SW 3.4 km/h 9.3 km/h 43 % 0 mm
14:35 34.8 °C 20.4 °C 1014.4 hPa SW 7.6 km/h 16.7 km/h 43 % 0 mm
14:40 34.9 °C 19.7 °C 1014.1 hPa SSW 10.1 km/h 16.7 km/h 41 % 0 mm
14:45 34.9 °C 20.1 °C 1014.1 hPa South 1.8 km/h 8 km/h 42 % 0 mm
14:50 34.8 °C 19.6 °C 1014.1 hPa WSW 6 km/h 11.1 km/h 41 % 0 mm
14:55 34.9 °C 19.7 °C 1014.1 hPa SW 3.5 km/h 11.1 km/h 41 % 0 mm
15:00 34.9 °C 20.4 °C 1014.1 hPa SSW 6.1 km/h 12.9 km/h 43 % 0 mm
15:05 34.8 °C 19.2 °C 1014.1 hPa West 13.4 km/h 16.1 km/h 40 % 0 mm
15:10 34.8 °C 20 °C 1014.1 hPa West 2.7 km/h 11.1 km/h 42 % 0 mm
15:15 34.8 °C 19.6 °C 1014.1 hPa WSW 2.9 km/h 11.1 km/h 41 % 0 mm
15:20 34.9 °C 19.3 °C 1014.1 hPa SSW 9.5 km/h 27.8 km/h 40 % 0 mm
15:25 34.9 °C 19.7 °C 1013.8 hPa SSW 3.1 km/h 8 km/h 41 % 0 mm
15:30 34.9 °C 19.3 °C 1013.8 hPa SSW 5.8 km/h 9.3 km/h 40 % 0 mm
15:35 34.9 °C 20.4 °C 1013.8 hPa SW 2.3 km/h 8 km/h 43 % 0 mm
15:40 34.9 °C 19.7 °C 1013.8 hPa SW 6.9 km/h 11.1 km/h 41 % 0 mm
15:46 34.9 °C 19.3 °C 1013.8 hPa SSW 4 km/h 11.1 km/h 40 % 0 mm
15:51 34.9 °C 19.7 °C 1013.8 hPa SSW 9.7 km/h 27.4 km/h 41 % 0 mm
15:56 34.9 °C 20.1 °C 1013.8 hPa WSW 2.3 km/h 13 km/h 42 % 0 mm
16:01 34.9 °C 20.8 °C 1013.8 hPa SSW 1.1 km/h 4.8 km/h 44 % 0 mm
16:06 34.9 °C 20.1 °C 1013.8 hPa SSW 8.4 km/h 18.5 km/h 42 % 0 mm
16:11 34.7 °C 19.9 °C 1013.8 hPa SSW 1.9 km/h 5.6 km/h 42 % 0 mm
16:16 34.6 °C 20.2 °C 1014.1 hPa SSE 5 km/h 11.1 km/h 43 % 0 mm
16:21 34.5 °C 20.5 °C 1013.8 hPa SSW 3.7 km/h 6.4 km/h 44 % 0 mm
16:26 34.3 °C 19.6 °C 1013.8 hPa WSW 5.3 km/h 16.7 km/h 42 % 0 mm
16:31 34.1 °C 20.1 °C 1014.1 hPa SSW 4.8 km/h 18.5 km/h 44 % 0 mm
16:36 33.9 °C 19.9 °C 1014.1 hPa SE 4.5 km/h 9.3 km/h 44 % 0 mm
16:41 33.8 °C 19.8 °C 1014.1 hPa SSW 5.5 km/h 16.7 km/h 44 % 0 mm
16:46 33.5 °C 20.3 °C 1014.1 hPa WNW 3.5 km/h 8 km/h 46 % 0 mm
16:51 33.4 °C 20.2 °C 1014.1 hPa SSE 3.4 km/h 7.4 km/h 46 % 0 mm
16:56 33.3 °C 20.1 °C 1014.1 hPa WSW 2.6 km/h 11.3 km/h 46 % 0 mm
17:01 33.1 °C 19.9 °C 1014.1 hPa SSW 1.9 km/h 9.3 km/h 46 % 0 mm
17:06 32.9 °C 19.7 °C 1013.8 hPa SW 6.1 km/h 16.7 km/h 46 % 0 mm
17:11 32.7 °C 19.6 °C 1013.8 hPa SSW 5.5 km/h 9.3 km/h 46 % 0 mm
17:16 32.4 °C 19.3 °C 1013.8 hPa SW 2.9 km/h 6.4 km/h 46 % 0 mm
17:21 32.3 °C 19.9 °C 1013.8 hPa SW 3.7 km/h 11.3 km/h 48 % 0 mm
17:31 31.8 °C 20.1 °C 1013.8 hPa SW 2.4 km/h 5.6 km/h 50 % 0 mm
17:36 31.5 °C 19.5 °C 1013.8 hPa SSW 3.9 km/h 7.4 km/h 49 % 0 mm
17:41 31.3 °C 19.6 °C 1013.4 hPa WSW 3.1 km/h 5.6 km/h 50 % 0 mm
17:46 31.1 °C 20.1 °C 1013.4 hPa SSW 2.7 km/h 5.6 km/h 52 % 0 mm
17:51 30.9 °C 19.9 °C 1013.4 hPa SSE 1 km/h 3.7 km/h 52 % 0 mm
17:57 30.7 °C 19.7 °C 1013.4 hPa South 1.3 km/h 5.6 km/h 52 % 0 mm
18:02 30.4 °C 19.8 °C 1013.1 hPa SSW 1.4 km/h 7.4 km/h 53 % 0 mm
18:07 30.3 °C 19.9 °C 1013.1 hPa SW 1.4 km/h 5.6 km/h 54 % 0 mm
18:12 30.1 °C 19.8 °C 1013.4 hPa West 3.2 km/h 7.4 km/h 54 % 0 mm
18:17 29.9 °C 19.6 °C 1013.4 hPa SSE 3.9 km/h 7.4 km/h 54 % 0 mm
18:22 29.8 °C 19.4 °C 1013.4 hPa WSW 4.2 km/h 5.6 km/h 54 % 0 mm
18:27 29.7 °C 19.4 °C 1013.4 hPa WSW 4.5 km/h 12.9 km/h 54 % 0 mm
18:32 29.6 °C 19.6 °C 1013.4 hPa South 3.1 km/h 5.6 km/h 55 % 0 mm
18:37 29.5 °C 19.5 °C 1013.1 hPa SSW 1.4 km/h 5.6 km/h 55 % 0 mm
18:42 29.4 °C 19.4 °C 1013.1 hPa SSE 0.3 km/h 3.7 km/h 55 % 0 mm
18:47 29.4 °C 19.7 °C 1013.1 hPa SW 1.1 km/h 4.8 km/h 56 % 0 mm
18:52 29.3 °C 19.7 °C 1013.1 hPa SSW 0.3 km/h 5.6 km/h 56 % 0 mm
18:57 29.3 °C 19.6 °C 1013.1 hPa SW 1.1 km/h 3.7 km/h 56 % 0 mm
19:02 29.2 °C 19.8 °C 1013.1 hPa SE 1.1 km/h 5.6 km/h 57 % 0 mm
19:07 29.1 °C 19.7 °C 1013.4 hPa SW 0.8 km/h 3.7 km/h 57 % 0 mm
19:12 29.1 °C 19.7 °C 1013.4 hPa SW 0.6 km/h 1.9 km/h 57 % 0 mm
19:17 29 °C 19.6 °C 1013.1 hPa SW 0.2 km/h 1.9 km/h 57 % 0 mm
19:22 28.9 °C 19.8 °C 1013.1 hPa Calm   1.9 km/h 58 % 0 mm
19:27 28.9 °C 19.8 °C 1013.4 hPa SW 2.7 km/h 4.8 km/h 58 % 0 mm
19:32 28.8 °C 19.4 °C 1013.4 hPa Calm   1.9 km/h 57 % 0 mm
19:37 28.8 °C 19.4 °C 1013.4 hPa WSW 1.9 km/h 5.6 km/h 57 % 0 mm
19:42 28.7 °C 19.3 °C 1013.4 hPa WSW 0.2 km/h 5.6 km/h 57 % 0 mm
19:47 28.6 °C 19.3 °C 1013.4 hPa WSW 0.5 km/h 3.7 km/h 57 % 0 mm
19:52 28.6 °C 19.2 °C 1013.4 hPa Calm     57 % 0 mm
19:57 28.4 °C 19.4 °C 1013.4 hPa WSW 0.2 km/h 1.9 km/h 58 % 0 mm
20:02 28.3 °C 19.6 °C 1013.4 hPa Calm     59 % 0 mm
20:07 28.2 °C 19.4 °C 1013.4 hPa WSW 0.6 km/h 1.9 km/h 59 % 0 mm
20:12 28.1 °C 19.3 °C 1013.4 hPa Calm     59 % 0 mm
20:17 27.9 °C 19.1 °C 1013.4 hPa Calm     59 % 0 mm
20:23 27.8 °C 19.3 °C 1013.4 hPa WSW 1.9 km/h 3.7 km/h 60 % 0 mm
20:28 27.6 °C 19.2 °C 1013.4 hPa WSW 0.5 km/h 1.9 km/h 60 % 0 mm
20:33 27.5 °C 19.1 °C 1013.4 hPa WSW 1.1 km/h 1.9 km/h 60 % 0 mm
20:38 27.3 °C 19.2 °C 1013.4 hPa WSW 0.3 km/h 1.9 km/h 61 % 0 mm
20:43 27.2 °C 19 °C 1013.4 hPa WSW 0.2 km/h 1.9 km/h 61 % 0 mm
20:48 27 °C 18.8 °C 1013.8 hPa WSW 0.2 km/h 3.2 km/h 61 % 0 mm
20:53 26.8 °C 18.9 °C 1013.4 hPa WSW 1.3 km/h 3.7 km/h 62 % 0 mm
20:58 26.7 °C 18.6 °C 1013.4 hPa WSW 0.6 km/h 1.9 km/h 61 % 0 mm
21:03 26.6 °C 18.7 °C 1013.4 hPa Calm   3.7 km/h 62 % 0 mm
21:08 26.4 °C 18.8 °C 1013.8 hPa Calm     63 % 0 mm
21:13 26.3 °C 18.7 °C 1013.8 hPa Calm     63 % 0 mm
21:18 26.2 °C 18.6 °C 1013.8 hPa Calm   1.9 km/h 63 % 0 mm
21:23 26.1 °C 18.7 °C 1014.1 hPa Calm     64 % 0 mm
21:28 25.9 °C 18.6 °C 1014.1 hPa Calm     64 % 0 mm
21:33 25.8 °C 18.8 °C 1014.1 hPa Calm     65 % 0 mm
21:38 25.7 °C 18.6 °C 1013.8 hPa Calm     65 % 0 mm
21:43 25.6 °C 18.5 °C 1014.1 hPa Calm     65 % 0 mm
21:48 25.4 °C 18.6 °C 1014.1 hPa Calm     66 % 0 mm
21:53 25.3 °C 18.7 °C 1014.1 hPa Calm     67 % 0 mm
21:58 25.2 °C 18.6 °C 1014.1 hPa Calm     67 % 0 mm
22:03 25 °C 18.4 °C 1014.1 hPa Calm     67 % 0 mm
22:08 24.8 °C 18.3 °C 1014.1 hPa Calm   1.6 km/h 67 % 0 mm
22:13 24.7 °C 18.4 °C 1014.1 hPa Calm     68 % 0 mm
22:18 24.6 °C 18.3 °C 1014.1 hPa WSW 0.2 km/h 1.9 km/h 68 % 0 mm
22:23 24.4 °C 18.4 °C 1014.1 hPa Calm   1.9 km/h 69 % 0 mm
22:28 24.3 °C 18.3 °C 1014.1 hPa WSW 1.4 km/h 3.7 km/h 69 % 0 mm
22:33 24.2 °C 18.2 °C 1014.1 hPa Calm     69 % 0 mm
22:38 24.2 °C 18.3 °C 1014.1 hPa Calm     70 % 0 mm
22:43 24.1 °C 18.2 °C 1014.1 hPa Calm   1.9 km/h 70 % 0 mm
22:44 24 °C 18.2 °C 1014.1 hPa WSW 0.2 km/h 1.9 km/h 70 % 0 mm
22:49 23.9 °C 18.1 °C 1014.1 hPa Calm     70 % 0 mm
22:54 23.8 °C 18.3 °C 1014.1 hPa Calm     71 % 0 mm
22:59 23.8 °C 18.2 °C 1014.1 hPa Calm     71 % 0 mm
23:04 23.7 °C 18.2 °C 1014.1 hPa WSW 0.6 km/h 1.9 km/h 71 % 0 mm
23:09 23.7 °C 18.1 °C 1014.1 hPa Calm   3.7 km/h 71 % 0 mm
23:14 23.6 °C 18.3 °C 1014.1 hPa WSW 1.9 km/h 5.6 km/h 72 % 0 mm
23:19 23.6 °C 18.3 °C 1014.1 hPa WSW 2.9 km/h 5.6 km/h 72 % 0 mm
23:24 23.6 °C 18.3 °C 1014.1 hPa West 1 km/h 4.8 km/h 72 % 0 mm
23:29 23.7 °C 18.6 °C 1014.1 hPa SSW 1.4 km/h 4.8 km/h 73 % 0 mm
23:34 23.7 °C 18.4 °C 1014.1 hPa WSW 6.3 km/h 8 km/h 72 % 0 mm
23:39 23.8 °C 18.4 °C 1014.1 hPa SW 2.7 km/h 5.6 km/h 72 % 0 mm
23:44 23.9 °C 18.6 °C 1014.1 hPa SW 0.5 km/h 1.9 km/h 72 % 0 mm
23:49 23.9 °C 18.4 °C 1014.1 hPa SW 0.5 km/h 5.6 km/h 71 % 0 mm
23:54 24 °C 18.4 °C 1014.1 hPa Calm     71 % 0 mm
23:59 24.1 °C 18.4 °C 1014.1 hPa SW 1 km/h 1.9 km/h 71 % 0 mm
Crab Meadow Weather
Compliments of Weather Underground - 3 mb

Script developed by  Jim McMurry - jmcmurry@mwt.net Adapted for the template by  Wim van der Kuil - Leuven-Template.eu

Wind Chill: Everyone has noticed that in winter it seems colder when the wind is blowing. Mothers recognize this and tell their children to wear more clothes. The question the children ask is how much more clothes. Mothers answer very precisely because Mothers know everything. For the rest of us, wind chill calculations are the basis for determining the effect of wind on body heat loss. The wind chill equivalent temperature equation is: Wind chill temperature = 35.74 + 0.6215T - 35.75V (**0.16) + 0.4275TV(**0.16) where T is the air temperature in Fahrenheit and V is the wind speed in MPH.